When you browse on this site, cookies collect data to enhance your experience and personalize the content and advertising you see.
Visit our Privacy Policy to learn more. By continuing to use the site, you agree to this use of cookies and data.
  • In Hungary
  • List of Countries
  • For 7 days
  • Water Temperature
  • Satellite Maps
  • Weather Map
  • News
  • Weather Widgets
  • user-avatar
    Login

    Hourly Weather Er-Riyad

    Today, 12 December, Wednesday

    Time Temperature Precipitation Wind Pressure Humidity
    00:00 +18°C° 0 mm 4 mps 713 mmHg 73%
    01:00 +18°C° 0 mm 3 mps 713 mmHg 75%
    02:00 +17°C° 0 mm 3 mps 713 mmHg 76%
    03:00 +17°C° 0 mm 3 mps 713 mmHg 75%
    04:00 +16°C° 0 mm 2 mps 713 mmHg 76%
    05:00 +16°C° 0 mm 2 mps 713 mmHg 76%
    06:00 +16°C° 0 mm 2 mps 713 mmHg 77%
    07:00 +17°C° 0 mm 2 mps 713 mmHg 73%
    08:00 +17°C° 0 mm 3 mps 713 mmHg 69%
    09:00 +18°C° 0 mm 3 mps 714 mmHg 60%
    10:00 +19°C° 0 mm 3 mps 714 mmHg 56%
    11:00 +21°C° 0 mm 3 mps 713 mmHg 52%
    12:00 +22°C° 0 mm 3 mps 713 mmHg 47%
    13:00 +24°C° 0 mm 3 mps 713 mmHg 45%
    14:00 +24°C° 0 mm 3 mps 713 mmHg 43%
    15:00 +25°C° 0 mm 3 mps 712 mmHg 41%
    16:00 +24°C° 0 mm 3 mps 712 mmHg 42%
    17:00 +24°C° 0 mm 3 mps 712 mmHg 44%
    18:00 +22°C° 0 mm 3 mps 712 mmHg 46%
    19:00 +22°C° 0 mm 3 mps 713 mmHg 46%
    20:00 +21°C° 0 mm 3 mps 713 mmHg 47%
    21:00 +21°C° 0 mm 3 mps 713 mmHg 48%
    22:00 +20°C° 0 mm 3 mps 713 mmHg 48%
    23:00 +20°C° 0 mm 3 mps 713 mmHg 47%

    Tomorrow, 13 December, Thursday

    Time Temperature Precipitation Wind Pressure Humidity
    00:00 +19°C° 0 mm 3 mps 713 mmHg 47%
    01:00 +19°C° 0 mm 3 mps 712 mmHg 47%
    02:00 +18°C° 0 mm 3 mps 712 mmHg 47%
    03:00 +18°C° 0 mm 3 mps 712 mmHg 47%
    04:00 +18°C° 0 mm 3 mps 712 mmHg 47%
    05:00 +18°C° 0 mm 3 mps 712 mmHg 47%
    06:00 +17°C° 0 mm 3 mps 712 mmHg 47%
    07:00 +18°C° 0 mm 3 mps 713 mmHg 45%
    08:00 +19°C° 0 mm 4 mps 713 mmHg 43%
    09:00 +20°C° 0 mm 4 mps 714 mmHg 41%
    10:00 +22°C° 0 mm 4 mps 714 mmHg 39%
    11:00 +23°C° 0 mm 4 mps 714 mmHg 36%
    12:00 +25°C° 0 mm 4 mps 713 mmHg 34%
    13:00 +26°C° 0 mm 4 mps 713 mmHg 33%
    14:00 +26°C° 0 mm 3 mps 713 mmHg 32%
    15:00 +27°C° 0 mm 3 mps 712 mmHg 31%
    16:00 +26°C° 0 mm 3 mps 713 mmHg 33%
    17:00 +25°C° 0 mm 3 mps 713 mmHg 35%
    18:00 +25°C° 0 mm 3 mps 713 mmHg 37%
    19:00 +24°C° 0 mm 3 mps 713 mmHg 39%
    20:00 +22°C° 0 mm 3 mps 713 mmHg 41%
    21:00 +22°C° 0 mm 4 mps 714 mmHg 42%
    22:00 +21°C° 0 mm 3 mps 713 mmHg 44%
    23:00 +21°C° 0 mm 3 mps 713 mmHg 45%

    Day after tomorrow, 14 December, Friday

    Time Temperature Precipitation Wind Pressure Humidity
    00:00 +20°C° 0 mm 3 mps 713 mmHg 47%
    01:00 +20°C° 0 mm 3 mps 713 mmHg 48%
    02:00 +19°C° 0 mm 3 mps 713 mmHg 49%
    03:00 +19°C° 0 mm 3 mps 713 mmHg 51%
    04:00 +19°C° 0 mm 3 mps 713 mmHg 51%
    05:00 +18°C° 0 mm 3 mps 713 mmHg 52%
    06:00 +18°C° 0 mm 3 mps 713 mmHg 53%
    07:00 +19°C° 0 mm 3 mps 713 mmHg 50%
    08:00 +20°C° 0 mm 4 mps 714 mmHg 48%
    09:00 +21°C° 0 mm 4 mps 715 mmHg 45%
    10:00 +22°C° 0 mm 4 mps 715 mmHg 42%
    11:00 +25°C° 0 mm 4 mps 714 mmHg 39%
    12:00 +26°C° 0 mm 3 mps 714 mmHg 37%
    13:00 +26°C° 0 mm 3 mps 714 mmHg 36%
    14:00 +26°C° 0 mm 3 mps 713 mmHg 35%
    15:00 +27°C° 0 mm 3 mps 713 mmHg 35%
    16:00 +26°C° 0 mm 4 mps 713 mmHg 37%
    17:00 +25°C° 0 mm 4 mps 713 mmHg 39%
    18:00 +23°C° 0 mm 4 mps 714 mmHg 41%
    19:00 +22°C° 0 mm 5 mps 714 mmHg 43%
    20:00 +22°C° 0 mm 5 mps 714 mmHg 45%
    21:00 +21°C° 0 mm 6 mps 714 mmHg 47%
    22:00 +20°C° 0.1 mm 5 mps 714 mmHg 49%
    23:00 +20°C° 0.1 mm 4 mps 714 mmHg 52%

    15 December, Saturday

    Time Temperature Precipitation Wind Pressure Humidity
    00:00 +19°C° 0.1 mm 4 mps 714 mmHg 54%
    01:00 +19°C° 0.1 mm 4 mps 714 mmHg 56%
    02:00 +18°C° 0.1 mm 4 mps 713 mmHg 57%
    03:00 +18°C° 0.1 mm 4 mps 713 mmHg 58%
    04:00 +18°C° 0 mm 4 mps 713 mmHg 58%
    05:00 +18°C° 0 mm 3 mps 713 mmHg 57%
    06:00 +18°C° 0 mm 3 mps 714 mmHg 56%
    07:00 +18°C° 0.7 mm 3 mps 714 mmHg 58%
    08:00 +18°C° 0.7 mm 3 mps 715 mmHg 60%
    09:00 +18°C° 0.7 mm 4 mps 715 mmHg 62%
    10:00 +18°C° 0.5 mm 4 mps 715 mmHg 63%
    11:00 +18°C° 0.5 mm 4 mps 714 mmHg 64%
    12:00 +18°C° 0.5 mm 4 mps 714 mmHg 65%
    13:00 +19°C° 0 mm 4 mps 714 mmHg 61%
    14:00 +20°C° 0 mm 4 mps 713 mmHg 57%
    15:00 +20°C° 0 mm 4 mps 713 mmHg 53%
    16:00 +20°C° 0 mm 3 mps 713 mmHg 54%
    17:00 +20°C° 0 mm 3 mps 713 mmHg 55%
    18:00 +19°C° 0 mm 3 mps 713 mmHg 56%
    19:00 +19°C° 0 mm 3 mps 714 mmHg 57%
    20:00 +18°C° 0 mm 3 mps 714 mmHg 58%
    21:00 +18°C° 0 mm 3 mps 714 mmHg 59%
    22:00 +18°C° 0 mm 3 mps 714 mmHg 60%
    23:00 +17°C° 0 mm 2 mps 714 mmHg 61%

    16 December, Sunday

    Time Temperature Precipitation Wind Pressure Humidity
    00:00 +17°C° 0 mm 2 mps 714 mmHg 63%
    01:00 +17°C° 0 mm 2 mps 713 mmHg 64%
    02:00 +17°C° 0 mm 2 mps 713 mmHg 66%
    03:00 +16°C° 0 mm 2 mps 713 mmHg 67%
    04:00 +16°C° 0 mm 2 mps 713 mmHg 69%
    05:00 +16°C° 0 mm 2 mps 713 mmHg 71%
    06:00 +15°C° 0 mm 2 mps 714 mmHg 73%
    07:00 +16°C° 0 mm 3 mps 714 mmHg 71%
    08:00 +17°C° 0 mm 3 mps 715 mmHg 69%
    09:00 +18°C° 0 mm 4 mps 715 mmHg 67%
    10:00 +19°C° 0 mm 4 mps 715 mmHg 62%
    11:00 +20°C° 0 mm 4 mps 714 mmHg 56%
    12:00 +21°C° 0 mm 5 mps 714 mmHg 51%
    13:00 +22°C° 0 mm 4 mps 714 mmHg 48%
    14:00 +22°C° 0 mm 4 mps 713 mmHg 45%
    15:00 +23°C° 0 mm 4 mps 713 mmHg 43%
    16:00 +22°C° 0 mm 4 mps 713 mmHg 44%
    17:00 +22°C° 0 mm 4 mps 713 mmHg 46%
    18:00 +21°C° 0 mm 3 mps 713 mmHg 48%
    19:00 +21°C° 0 mm 3 mps 713 mmHg 49%
    20:00 +20°C° 0 mm 3 mps 714 mmHg 50%
    21:00 +19°C° 0 mm 4 mps 714 mmHg 51%
    22:00 +19°C° 0 mm 3 mps 713 mmHg 52%
    23:00 +19°C° 0 mm 3 mps 713 mmHg 53%

    17 December, Monday

    Time Temperature Precipitation Wind Pressure Humidity
    00:00 +18°C° 0 mm 3 mps 713 mmHg 54%
    01:00 +18°C° 0 mm 3 mps 713 mmHg 56%
    02:00 +17°C° 0 mm 3 mps 712 mmHg 57%
    03:00 +17°C° 0 mm 3 mps 712 mmHg 58%
    04:00 +17°C° 0 mm 3 mps 712 mmHg 59%
    05:00 +16°C° 0 mm 3 mps 712 mmHg 61%
    06:00 +16°C° 0 mm 3 mps 712 mmHg 62%
    07:00 +17°C° 0 mm 4 mps 713 mmHg 59%
    08:00 +18°C° 0 mm 4 mps 713 mmHg 56%
    09:00 +19°C° 0 mm 5 mps 713 mmHg 53%
    10:00 +20°C° 0 mm 5 mps 713 mmHg 48%
    11:00 +21°C° 0 mm 5 mps 712 mmHg 43%
    12:00 +23°C° 0 mm 6 mps 712 mmHg 38%
    13:00 +23°C° 0 mm 6 mps 711 mmHg 36%
    14:00 +24°C° 0 mm 6 mps 711 mmHg 34%
    15:00 +25°C° 0 mm 5 mps 710 mmHg 32%
    16:00 +23°C° 0 mm 5 mps 711 mmHg 34%
    17:00 +22°C° 0 mm 5 mps 711 mmHg 35%
    18:00 +21°C° 0 mm 4 mps 711 mmHg 37%
    19:00 +21°C° 0 mm 4 mps 711 mmHg 38%
    20:00 +20°C° 0 mm 4 mps 711 mmHg 39%
    21:00 +20°C° 0 mm 4 mps 711 mmHg 40%
    22:00 +19°C° 0 mm 4 mps 711 mmHg 41%
    23:00 +19°C° 0 mm 4 mps 711 mmHg 41%
    Show more